Location: Mazzangrugno
(43.5167°N, 13.3167°E)
Time: 12:10:12
(UTC+00:00)

Daily predictions for brighter satellites

Satellite Brightness Start Highest point End
(mag) Time Altitude Azimuth Time Altitude Azimuth Time Altitude Azimuth
COSMOS 2406 3.3 16:33:12 10° NNW 16:38:59 68° ENE 16:44:40 10° SE
Cosmos 2058 Rocket 3.1 16:36:48 10° S 16:41:03 55° E 16:45:18 10° NNE
Unknown 4.3 16:39:41 10° NW 16:42:42 28° NNE 16:45:41 10° E
Cosmos 1461 3.7 16:39:02 10° NNW 16:42:43 31° NE 16:46:29 10° ESE
Lacrosse 5 2.7 16:38:20 10° NW 16:42:58 34° NNE 16:47:35 10° E
Cosmos 1703 3.7 16:39:28 10° N 16:43:13 40° ENE 16:46:54 10° SSE
ATLAS 3B R/B 4.2 16:40:40 10° SE 16:43:30 13° ESE 16:46:19 10° E
Unknown 2.8 16:43:00 10° NW 16:46:05 72° NNE 16:49:13 10° ESE
CZ-4 R/B 2.1 16:45:11 10° SE 16:48:59 34° ENE 16:52:49 10° N
ATLAS 5 CENTAUR R/B 3.8 16:46:31 10° W 16:49:53 21° NW 16:53:33 10° NNE
CENTAUR R/B 3.9 16:48:27 10° SE 16:51:28 14° ESE 16:54:40 10° ENE
FALCON 9 DEB 4.3 16:48:35 10° NW 16:51:40 29° NNE 16:54:38 11° E
COSMO-SKYMED 1 2.8 16:52:36 10° NNE 16:56:49 47° E 17:00:59 10° S
Gbstr 26 Del rocket 4.1 16:51:41 10° NW 16:57:31 63° NNE 17:04:39 10° ESE
Meteor 1-16 Rocket 4.2 16:52:34 10° S 16:58:06 87° W 17:03:31 10° N
Envisat 3.0 16:53:44 10° SSE 16:58:45 67° ENE 17:03:48 10° N
Cosmos 1726 2.0 16:56:41 10° S 17:00:19 88° E 17:03:58 10° N
Cosmos 1908 3.3 16:57:03 10° S 17:00:52 56° E 17:04:41 10° NNE
Cosmos 2278 Rocket 2.2 16:55:53 10° S 17:01:29 65° ESE 17:07:07 10° NNE
EO 1 Delta rocket 4.4 16:58:01 10° SE 17:02:16 38° ENE 17:06:54 10° N
Okean-O 3.0 16:58:23 10° S 17:02:48 72° WSW 17:07:15 10° NNW
Cosmos 1953 Rocket 4.5 17:00:07 10° NNW 17:04:22 53° W 17:08:34 10° S
BREEZE-M DEB (TANK) 2.9 17:00:29 10° SW 17:06:19 60° SSE 17:08:19 16° ENE
Falcon 9 debris 3.9 17:03:20 10° NW 17:06:34 36° NNE 17:08:54 16° E
Unknown 4.2 17:03:41 10° NW 17:06:52 31° NNE 17:09:07 16° ENE
FengYun 1-2 T 4.3 17:02:00 10° SSE 17:07:34 65° ENE 17:13:07 10° N
Cosmos 1356 3.9 17:05:16 10° SSW 17:08:40 65° WNW 17:12:07 10° N
Meteor 1-11 4.2 17:03:58 10° N 17:09:46 73° E 17:15:34 10° SSE
Cosmos 1605 Rocket 3.9 17:04:55 10° N 17:11:04 65° E 17:17:06 10° SSE
CSL-04 Rocket 3.8 17:08:33 10° SSE 17:13:56 56° ENE 17:19:17 10° N
Cosmos 1934 Rocket 4.2 17:07:39 10° N 17:14:02 80° W 17:20:23 10° S
USA 238 DEB 3.7 17:09:58 10° SSW 17:16:30 62° ESE 17:23:17 10° NE
USA 238 3.7 17:10:05 10° SSW 17:16:37 61° ESE 17:23:23 10° NE
Meteor 2-10 4.3 17:14:40 10° SSW 17:19:42 71° WNW 17:24:44 10° N
CZ-4 R/B 4.3 17:16:44 10° SSE 17:20:50 82° ENE 17:24:58 10° N
COBE Rocket 4.2 17:15:45 10° N 17:20:54 75° WNW 17:25:55 10° SSW
Cosmos 1727 Rocket 4.1 17:16:06 10° SSE 17:22:03 53° E 17:28:02 10° NNE
Cosmos 1076 Rocket 4.1 17:20:09 10° N 17:24:10 35° ENE 17:28:09 10° SE
Unknown 3.7 17:25:18 10° NW 17:28:41 44° NNE 17:30:03 29° E
Cosmos 44 4.0 17:24:29 10° S 17:28:56 33° ESE 17:31:18 21° ENE
YAOGAN 6 2.6 17:26:18 10° S 17:29:58 83° WSW 17:33:36 10° NNW
NOAA 11 4.4 17:26:15 10° SE 17:31:26 48° ENE 17:36:38 10° N
Cosmos 1812 Rocket 3.6 17:29:17 10° S 17:33:38 59° E 17:38:02 10° NNE
Cosmos 2058 3.6 17:31:29 10° N 17:35:18 33° ENE 17:36:43 26° ESE
Cosmos 1833 Rocket 2.6 17:29:52 10° NNW 17:35:31 89° ENE 17:41:09 10° SSE
NOSS 3-2 (A) 3.3 17:34:02 10° SSW 17:39:41 72° ESE 17:46:06 10° NE
Cosmos 967 Rocket 4.5 17:34:04 10° NNW 17:40:33 71° NE 17:46:27 13° SE
Ariane Rocket 3.2 17:36:35 10° SE 17:41:26 47° ENE 17:46:20 10° N
YAOGAN 1 2.7 17:39:47 10° S 17:44:06 78° WSW 17:48:27 10° NNW
SKYMED 2 4.4 17:40:38 10° N 17:44:52 52° WNW 17:49:04 10° SSW
NOSS 3-3 (A) 4.5 17:42:27 10° NW 17:50:00 73° NE 17:56:47 17° SE
NOSS 3-3 (C) 4.5 17:42:33 10° NW 17:50:06 73° NE 17:56:49 17° SE
IRS-1A Rocket 4.3 17:46:35 12° SE 17:51:28 52° ENE 17:56:48 10° N
Cosmos 1300 2.5 17:48:29 10° S 17:52:17 74° E 17:56:06 10° NNE
Cosmos 1939 Rocket 2.7 17:49:26 14° SSE 17:52:51 68° ENE 17:56:54 10° N
CZ-2D R/B 3.1 17:52:14 10° SSE 17:56:04 84° ENE 17:59:58 10° N
Cosmos 2100 Rocket 3.9 17:49:59 10° N 17:56:06 60° ENE 18:02:09 10° SSE
Shenzhou-11 Module 3.4 17:53:47 10° W 17:56:12 27° SSW 17:56:17 27° SSW
Abrixas rocket 3.1 17:54:36 10° WNW 17:57:29 35° N 17:57:37 35° N
Cosmos 1937 Rocket 4.2 17:54:48 10° N 17:59:13 32° NE 17:59:13 32° NE
Cosmos 990 Rocket 4.3 17:55:05 10° N 18:00:02 42° ENE 18:00:40 40° E
NOSS 3-2 (C) 3.3 17:59:46 10° SSW 18:05:26 71° ESE 18:09:34 23° NE
ADEOS Rocket 3.9 17:59:06 10° NNE 18:05:55 35° E 18:12:13 10° SSE
Cosmos 2082 Rocket 2.3 18:00:42 10° NNW 18:06:24 76° WSW 18:11:50 11° SSE
BREEZE-M DEB (TANK) 4.3 18:02:41 10° WNW 18:07:39 85° SSW 18:18:49 20° SE
Cosmos 2016 Rocket 4.1 18:07:19 10° N 18:13:29 53° ENE 18:15:25 39° SE
Unknown 4.0 18:16:23 10° WNW 18:19:12 48° WSW 18:19:12 48° WSW
Meteor 2-1 Rocket 4.1 18:17:43 10° S 18:23:13 90° W 18:28:50 10° N
CZ-4 R/B 4.0 18:20:50 10° SW 18:24:03 21° W 18:27:20 10° NW
Cosmos 1763 Rocket 3.9 18:18:55 10° S 18:22:48 45° SSE 18:22:48 45° SSE
SPOT 3 Rocket 4.3 18:26:37 37° NNE 18:26:37 37° NNE 18:30:13 10° N
Lacrosse 5 2.3 18:21:13 10° NW 18:26:10 57° SW 18:27:30 43° S
SJ 16-02 2.6 18:23:23 10° N 18:25:44 29° N 18:25:44 29° N
FALCON 9 DEB 4.5 18:25:31 10° WNW 18:28:00 39° W 18:28:00 39° W
In-Cosmos 22 Rocket 4.1 18:24:30 10° NNW 18:29:58 84° W 18:32:45 31° S
ATLAS CENTAUR R/B 4.1 18:30:02 10° N 18:30:12 10° N 18:30:12 10° N
ATLAS 3B R/B 2.5 18:26:22 10° SSW 18:33:05 75° ESE 18:35:04 48° NE
Cosmos 2084 Rocket 4.0 18:31:45 10° NW 18:36:05 55° WSW 18:36:06 55° WSW
CENTAUR R/B 2.3 18:34:54 10° SSW 18:40:48 87° SE 18:42:36 51° NE
H-2A R/B 3.0 18:42:58 37° NNE 18:42:58 37° NNE 18:46:24 10° N
Cosmos 1459 Rocket 4.4 18:39:33 10° NNW 18:45:42 63° W 18:51:56 10° S
Cosmos 2278 Rocket 4.4 18:41:40 10° W 18:46:03 23° NW 18:50:29 10° N
Cosmos 2061 Rocket 3.9 18:41:10 10° N 18:47:25 83° W 18:49:20 47° S
Cosmos 2297 4.2 18:43:46 10° SW 18:49:21 57° WNW 18:53:21 20° NNE
Cosmos 1898 Rocket 3.7 18:44:40 10° NNW 18:49:56 69° WSW 18:50:02 69° WSW
ARGOS 4.3 19:05:13 35° N 19:05:13 35° N 19:08:16 10° NNW
ADEOS Rocket 4.1 19:44:15 10° N 19:51:34 50° WNW 19:58:19 10° SW
ATLAS 3B R/B 4.4 20:18:38 10° W 20:22:24 25° WNW 20:22:24 25° WNW
